Time,TemperatureF,DewpointF,PressureIn,WindDirection,WindDirectionDegrees,WindSpeedMPH,WindSpeedGustMPH,Humidity,HourlyPrecipIn,Conditions,Clouds,dailyrainin,SoftwareType,DateUTC
2012-02-25 00:00:00,29.7,26.5,30.27,NNE,26,0.0,0.0,88,0.00,,,0.00,VWS V13.01,2012-02-25 06:00:00,
2012-02-25 00:05:00,29.5,26.6,30.27,NE,38,0.0,0.0,89,0.00,,,0.00,VWS V13.01,2012-02-25 06:05:00,
2012-02-25 00:10:00,29.5,26.4,30.27,NE,38,0.0,0.0,88,0.00,,,0.00,VWS V13.01,2012-02-25 06:10:00,
2012-02-25 00:15:00,29.5,25.8,30.24,NE,38,0.0,0.0,86,0.00,,,0.00,VWS V13.01,2012-02-25 06:15:00,
2012-02-25 00:20:00,29.7,26.3,30.24,NE,38,0.0,0.0,87,0.00,,,0.00,VWS V13.01,2012-02-25 06:20:00,
2012-02-25 00:25:00,29.7,26.5,30.24,NE,38,0.0,0.0,88,0.00,,,0.00,VWS V13.01,2012-02-25 06:25:00,
2012-02-25 00:30:00,29.5,26.4,30.24,NE,38,0.0,0.0,88,0.00,,,0.00,VWS V13.01,2012-02-25 06:30:00,
2012-02-25 00:35:00,29.5,25.8,30.24,NNE,24,0.0,0.0,86,0.00,,,0.00,VWS V13.01,2012-02-25 06:35:00,
2012-02-25 00:40:00,29.7,24.9,30.24,North,4,0.0,0.0,82,0.00,,,0.00,VWS V13.01,2012-02-25 06:40:00,
2012-02-25 00:45:00,29.7,24.3,30.27,North,4,0.0,0.0,80,0.00,,,0.00,VWS V13.01,2012-02-25 06:45:00,
2012-02-25 00:50:00,29.5,23.8,30.27,North,4,0.0,0.0,79,0.00,,,0.00,VWS V13.01,2012-02-25 06:50:00,
2012-02-25 00:55:00,29.5,23.8,30.27,North,4,0.0,0.0,79,0.00,,,0.00,VWS V13.01,2012-02-25 06:55:00,
2012-02-25 01:00:00,29.3,23.9,30.27,North,4,0.0,0.0,80,0.00,,,0.00,VWS V13.01,2012-02-25 07:00:00,
2012-02-25 01:05:00,29.3,24.5,30.27,NE,34,0.0,0.0,82,0.00,,,0.00,VWS V13.01,2012-02-25 07:05:00,
2012-02-25 01:10:00,29.1,24.6,30.27,NE,34,0.0,0.0,83,0.00,,,0.00,VWS V13.01,2012-02-25 07:10:00,
2012-02-25 01:15:00,28.9,24.7,30.27,NE,34,0.0,0.0,84,0.00,,,0.00,VWS V13.01,2012-02-25 07:15:00,
2012-02-25 01:20:00,28.8,24.8,30.27,NE,34,0.0,0.0,85,0.00,,,0.00,VWS V13.01,2012-02-25 07:20:00,
2012-02-25 01:25:00,28.6,24.9,30.27,NE,34,0.0,0.0,86,0.00,,,0.00,VWS V13.01,2012-02-25 07:25:00,
2012-02-25 01:30:00,28.6,25.8,30.27,North,5,0.0,0.0,89,0.00,,,0.00,VWS V13.01,2012-02-25 07:30:00,
2012-02-25 01:35:00,28.4,25.6,30.27,North,2,0.0,0.0,89,0.00,,,0.00,VWS V13.01,2012-02-25 07:35:00,
2012-02-25 01:40:00,28.4,25.6,30.27,North,2,0.0,0.0,89,0.00,,,0.00,VWS V13.01,2012-02-25 07:40:00,
2012-02-25 01:41:00,28.4,25.3,30.27,North,2,0.0,0.0,88,0.00,,,0.00,VWS V13.01,2012-02-25 07:41:00,
2012-02-25 01:46:00,28.2,25.1,30.27,ESE,103,0.0,0.0,88,0.00,,,0.00,VWS V13.01,2012-02-25 07:46:00,
2012-02-25 01:51:00,28.2,25.1,30.27,SSE,157,0.0,0.0,88,0.00,,,0.00,VWS V13.01,2012-02-25 07:51:00,
2012-02-25 01:56:00,28.2,25.1,30.27,SSE,157,0.0,0.0,88,0.00,,,0.00,VWS V13.01,2012-02-25 07:56:00,
2012-02-25 02:01:00,28.0,25.5,30.27,SSE,156,0.0,0.0,90,0.00,,,0.00,VWS V13.01,2012-02-25 08:01:00,
2012-02-25 02:06:00,28.0,25.5,30.27,West,269,0.0,0.0,90,0.00,,,0.00,VWS V13.01,2012-02-25 08:06:00,
2012-02-25 02:11:00,28.0,25.2,30.27,West,269,0.0,0.0,89,0.00,,,0.00,VWS V13.01,2012-02-25 08:11:00,
2012-02-25 02:16:00,28.0,25.2,30.27,West,269,0.0,0.0,89,0.00,,,0.00,VWS V13.01,2012-02-25 08:16:00,
2012-02-25 02:21:00,27.9,25.0,30.27,West,268,0.0,0.0,89,0.00,,,0.00,VWS V13.01,2012-02-25 08:21:00,
2012-02-25 02:26:00,27.9,25.0,30.27,West,269,0.0,0.0,89,0.00,,,0.00,VWS V13.01,2012-02-25 08:26:00,
2012-02-25 02:31:00,27.9,25.3,30.27,West,268,0.0,0.0,90,0.00,,,0.00,VWS V13.01,2012-02-25 08:31:00,
2012-02-25 02:36:00,27.7,25.7,30.27,West,268,0.0,0.0,92,0.00,,,0.00,VWS V13.01,2012-02-25 08:36:00,
2012-02-25 02:41:00,27.7,25.7,30.27,West,269,0.0,0.0,92,0.00,,,0.00,VWS V13.01,2012-02-25 08:41:00,
2012-02-25 02:46:00,27.5,25.5,30.27,NNW,339,0.0,0.0,92,0.00,,,0.00,VWS V13.01,2012-02-25 08:46:00,
2012-02-25 02:51:00,27.3,25.0,30.27,NNW,348,0.0,0.0,91,0.00,,,0.00,VWS V13.01,2012-02-25 08:51:00,
2012-02-25 02:56:00,27.3,25.0,30.27,NNW,348,0.0,0.0,91,0.00,,,0.00,VWS V13.01,2012-02-25 08:56:00,
2012-02-25 03:01:00,27.3,25.3,30.24,North,359,0.0,0.0,92,0.00,,,0.00,VWS V13.01,2012-02-25 09:01:00,
2012-02-25 03:06:00,27.3,25.3,30.24,North,3,0.0,0.0,92,0.00,,,0.00,VWS V13.01,2012-02-25 09:06:00,
2012-02-25 03:11:00,27.1,25.1,30.24,North,4,0.0,0.0,92,0.00,,,0.00,VWS V13.01,2012-02-25 09:11:00,
2012-02-25 03:16:00,27.0,25.0,30.27,North,3,0.0,0.0,92,0.00,,,0.00,VWS V13.01,2012-02-25 09:16:00,
2012-02-25 03:21:00,27.0,25.2,30.27,North,3,0.0,0.0,93,0.00,,,0.00,VWS V13.01,2012-02-25 09:21:00,
2012-02-25 03:26:00,27.0,25.2,30.27,North,3,0.0,0.0,93,0.00,,,0.00,VWS V13.01,2012-02-25 09:26:00,
2012-02-25 03:31:00,27.0,25.5,30.27,North,3,0.0,0.0,94,0.00,,,0.00,VWS V13.01,2012-02-25 09:31:00,
2012-02-25 03:36:00,27.0,25.5,30.27,NNW,342,0.0,0.0,94,0.00,,,0.00,VWS V13.01,2012-02-25 09:36:00,
2012-02-25 03:41:00,27.0,25.5,30.27,NNW,342,0.0,0.0,94,0.00,,,0.00,VWS V13.01,2012-02-25 09:41:00,
2012-02-25 03:46:00,27.0,25.2,30.27,NNW,342,0.0,0.0,93,0.00,,,0.00,VWS V13.01,2012-02-25 09:46:00,
2012-02-25 03:51:00,27.0,25.2,30.27,NNW,342,0.0,0.0,93,0.00,,,0.00,VWS V13.01,2012-02-25 09:51:00,
2012-02-25 03:56:00,26.8,25.3,30.27,NNW,342,0.0,0.0,94,0.00,,,0.00,VWS V13.01,2012-02-25 09:56:00,
2012-02-25 04:01:00,26.8,25.3,30.27,NNW,342,0.0,0.0,94,0.00,,,0.00,VWS V13.01,2012-02-25 10:01:00,
2012-02-25 04:06:00,26.8,25.5,30.27,NNW,342,0.0,0.0,95,0.00,,,0.00,VWS V13.01,2012-02-25 10:06:00,
2012-02-25 04:11:00,26.6,25.4,30.27,North,355,0.0,0.0,95,0.00,,,0.00,VWS V13.01,2012-02-25 10:11:00,
2012-02-25 04:16:00,26.4,25.2,30.27,North,356,0.0,0.0,95,0.00,,,0.00,VWS V13.01,2012-02-25 10:16:00,
2012-02-25 04:21:00,26.4,25.2,30.27,North,3,0.0,0.0,95,0.00,,,0.00,VWS V13.01,2012-02-25 10:21:00,
2012-02-25 04:26:00,26.2,25.0,30.27,North,4,0.0,0.0,95,0.00,,,0.00,VWS V13.01,2012-02-25 10:26:00,
2012-02-25 04:31:00,26.2,25.0,30.27,North,4,0.0,0.0,95,0.00,,,0.00,VWS V13.01,2012-02-25 10:31:00,
2012-02-25 04:36:00,26.2,25.3,30.27,North,10,0.0,0.0,96,0.00,,,0.00,VWS V13.01,2012-02-25 10:36:00,
2012-02-25 04:41:00,26.2,25.3,30.27,North,9,0.0,0.0,96,0.00,,,0.00,VWS V13.01,2012-02-25 10:41:00,
2012-02-25 04:46:00,26.2,25.3,30.27,North,10,0.0,0.0,96,0.00,,,0.00,VWS V13.01,2012-02-25 10:46:00,
2012-02-25 04:47:00,26.2,25.3,30.27,North,9,0.0,0.0,96,0.00,,,0.00,VWS V13.01,2012-02-25 10:47:00,
2012-02-25 04:52:00,26.2,25.5,30.27,North,10,0.0,0.0,97,0.00,,,0.00,VWS V13.01,2012-02-25 10:52:00,
2012-02-25 04:57:00,26.1,25.3,30.27,North,10,0.0,0.0,97,0.00,,,0.00,VWS V13.01,2012-02-25 10:57:00,
2012-02-25 05:02:00,26.1,25.8,30.27,North,9,0.0,0.0,99,0.00,,,0.00,VWS V13.01,2012-02-25 11:02:00,
2012-02-25 05:07:00,26.1,25.8,30.27,North,10,0.0,0.0,99,0.00,,,0.00,VWS V13.01,2012-02-25 11:07:00,
2012-02-25 05:12:00,25.9,25.4,30.27,North,9,0.0,0.0,98,0.00,,,0.00,VWS V13.01,2012-02-25 11:12:00,
2012-02-25 05:17:00,25.7,25.0,30.27,North,10,0.0,0.0,97,0.00,,,0.00,VWS V13.01,2012-02-25 11:17:00,
2012-02-25 05:22:00,25.7,25.2,30.27,North,10,0.0,0.0,98,0.00,,,0.00,VWS V13.01,2012-02-25 11:22:00,
2012-02-25 05:27:00,25.7,25.2,30.27,North,10,0.0,0.0,98,0.00,,,0.00,VWS V13.01,2012-02-25 11:27:00,
2012-02-25 05:32:00,25.7,25.5,30.27,North,10,0.0,0.0,99,0.00,,,0.00,VWS V13.01,2012-02-25 11:32:00,
2012-02-25 05:37:00,25.7,25.2,30.27,North,9,0.0,0.0,98,0.00,,,0.00,VWS V13.01,2012-02-25 11:37:00,
2012-02-25 05:42:00,25.7,25.2,30.27,North,10,0.0,0.0,98,0.00,,,0.00,VWS V13.01,2012-02-25 11:42:00,
2012-02-25 05:47:00,25.7,25.2,30.27,North,9,0.0,0.0,98,0.00,,,0.00,VWS V13.01,2012-02-25 11:47:00,
2012-02-25 05:52:00,25.5,25.0,30.27,North,10,0.0,0.0,98,0.00,,,0.00,VWS V13.01,2012-02-25 11:52:00,
2012-02-25 05:57:00,25.5,25.0,30.27,North,9,0.0,0.0,98,0.00,,,0.00,VWS V13.01,2012-02-25 11:57:00,
2012-02-25 06:02:00,25.5,25.3,30.27,North,10,0.0,0.0,99,0.00,,,0.00,VWS V13.01,2012-02-25 12:02:00,
2012-02-25 06:07:00,25.5,25.3,30.27,North,10,0.0,0.0,99,0.00,,,0.00,VWS V13.01,2012-02-25 12:07:00,
2012-02-25 06:12:00,25.5,25.5,30.27,North,10,0.0,0.0,100,0.00,,,0.00,VWS V13.01,2012-02-25 12:12:00,
2012-02-25 06:17:00,25.3,25.3,30.30,North,10,0.0,0.0,100,0.00,,,0.00,VWS V13.01,2012-02-25 12:17:00,
2012-02-25 06:22:00,25.3,25.3,30.30,North,10,0.0,0.0,100,0.00,,,0.00,VWS V13.01,2012-02-25 12:22:00,
2012-02-25 06:27:00,25.5,25.5,30.30,North,9,0.0,0.0,100,0.00,,,0.00,VWS V13.01,2012-02-25 12:27:00,
2012-02-25 06:32:00,25.5,25.5,30.30,North,10,0.0,0.0,100,0.00,,,0.00,VWS V13.01,2012-02-25 12:32:00,
2012-02-25 06:37:00,25.3,25.3,30.30,North,10,2.2,2.7,100,0.00,,,0.00,VWS V13.01,2012-02-25 12:37:00,
2012-02-25 06:42:00,25.3,25.3,30.30,SE,127,3.6,3.6,100,0.00,,,0.00,VWS V13.01,2012-02-25 12:42:00,
2012-02-25 06:47:00,25.3,25.3,30.30,SE,143,0.0,2.7,100,0.00,,,0.00,VWS V13.01,2012-02-25 12:47:00,
2012-02-25 06:52:00,25.3,25.3,30.30,North,357,2.7,3.1,100,0.00,,,0.00,VWS V13.01,2012-02-25 12:52:00,
2012-02-25 06:57:00,25.2,25.2,30.30,North,359,2.2,3.1,100,0.00,,,0.00,VWS V13.01,2012-02-25 12:57:00,
2012-02-25 07:02:00,25.2,25.2,30.30,South,170,5.4,5.8,100,0.00,,,0.00,VWS V13.01,2012-02-25 13:02:00,
2012-02-25 07:07:00,25.3,25.3,30.30,South,177,0.0,2.7,100,0.00,,,0.00,VWS V13.01,2012-02-25 13:07:00,
2012-02-25 07:12:00,25.3,25.3,30.30,South,177,0.0,0.0,100,0.00,,,0.00,VWS V13.01,2012-02-25 13:12:00,
2012-02-25 07:17:00,25.5,25.5,30.30,NNW,341,0.0,0.0,100,0.00,,,0.00,VWS V13.01,2012-02-25 13:17:00,
2012-02-25 07:22:00,25.9,25.6,30.30,NNW,341,0.0,0.0,99,0.00,,,0.00,VWS V13.01,2012-02-25 13:22:00,
2012-02-25 07:27:00,26.2,26.0,30.30,NNW,341,0.0,0.0,99,0.00,,,0.00,VWS V13.01,2012-02-25 13:27:00,
2012-02-25 07:32:00,27.0,26.5,30.30,NNW,341,0.0,0.0,98,0.00,,,0.00,VWS V13.01,2012-02-25 13:32:00,
2012-02-25 07:37:00,27.5,26.8,30.30,NNW,340,0.0,0.0,97,0.00,,,0.00,VWS V13.01,2012-02-25 13:37:00,
2012-02-25 07:42:00,27.9,26.1,30.30,North,349,0.0,0.0,93,0.00,,,0.00,VWS V13.01,2012-02-25 13:42:00,
2012-02-25 07:47:00,28.4,25.9,30.30,NNW,336,0.0,2.2,90,0.00,,,0.00,VWS V13.01,2012-02-25 13:47:00,
2012-02-25 07:52:00,28.9,25.6,30.30,NNW,333,0.0,3.1,87,0.00,,,0.00,VWS V13.01,2012-02-25 13:52:00,
2012-02-25 07:57:00,29.5,26.1,30.30,NNW,347,0.0,0.0,87,0.00,,,0.00,VWS V13.01,2012-02-25 13:57:00,
2012-02-25 08:02:00,30.6,26.9,30.30,NNW,347,0.0,0.0,86,0.00,,,0.00,VWS V13.01,2012-02-25 14:02:00,
2012-02-25 08:07:00,31.8,27.8,30.30,North,1,0.0,0.0,85,0.00,,,0.00,VWS V13.01,2012-02-25 14:07:00,
2012-02-25 08:12:00,33.1,26.7,30.30,NE,50,3.1,3.1,77,0.00,,,0.00,VWS V13.01,2012-02-25 14:12:00,
2012-02-25 08:17:00,33.6,26.2,30.33,NNE,23,3.6,3.6,74,0.00,,,0.00,VWS V13.01,2012-02-25 14:17:00,
2012-02-25 08:22:00,34.0,27.2,30.33,NNE,31,2.2,2.2,76,0.00,,,0.00,VWS V13.01,2012-02-25 14:22:00,
2012-02-25 08:27:00,34.9,26.8,30.33,NE,41,2.7,2.7,72,0.00,,,0.00,VWS V13.01,2012-02-25 14:27:00,
2012-02-25 08:32:00,35.8,27.3,30.33,ENE,75,0.0,0.0,71,0.00,,,0.00,VWS V13.01,2012-02-25 14:32:00,
2012-02-25 08:37:00,36.7,26.8,30.33,ENE,59,0.0,0.0,67,0.00,,,0.00,VWS V13.01,2012-02-25 14:37:00,
2012-02-25 08:42:00,37.6,27.3,30.33,ENE,64,0.0,0.0,66,0.00,,,0.00,VWS V13.01,2012-02-25 14:42:00,
2012-02-25 08:47:00,38.7,27.5,30.33,NE,50,0.0,0.0,64,0.00,,,0.00,VWS V13.01,2012-02-25 14:47:00,
2012-02-25 08:52:00,39.7,27.0,30.33,NNE,30,0.0,0.0,60,0.00,,,0.00,VWS V13.01,2012-02-25 14:52:00,
2012-02-25 08:57:00,40.3,28.3,30.33,SE,136,0.0,0.0,62,0.00,,,0.00,VWS V13.01,2012-02-25 14:57:00,
2012-02-25 09:02:00,39.7,27.0,30.33,SSE,159,2.2,2.2,60,0.00,,,0.00,VWS V13.01,2012-02-25 15:02:00,
2012-02-25 09:07:00,39.0,26.7,30.33,SSE,147,3.1,4.9,61,0.00,,,0.00,VWS V13.01,2012-02-25 15:07:00,
2012-02-25 09:12:00,39.0,27.9,30.33,SE,125,2.7,2.7,64,0.00,,,0.00,VWS V13.01,2012-02-25 15:12:00,
2012-02-25 09:17:00,39.7,28.6,30.33,SE,130,2.7,3.6,64,0.00,,,0.00,VWS V13.01,2012-02-25 15:17:00,
2012-02-25 09:22:00,40.1,27.8,30.33,South,170,0.0,2.7,61,0.00,,,0.00,VWS V13.01,2012-02-25 15:22:00,
2012-02-25 09:27:00,40.5,28.1,30.33,South,172,4.0,5.4,61,0.00,,,0.00,VWS V13.01,2012-02-25 15:27:00,
2012-02-25 09:33:00,41.0,27.8,30.33,SSE,152,2.2,2.7,59,0.00,,,0.00,VWS V13.01,2012-02-25 15:33:00,
2012-02-25 09:38:00,41.7,27.2,30.33,SSE,160,2.7,2.7,56,0.00,,,0.00,VWS V13.01,2012-02-25 15:38:00,
2012-02-25 09:43:00,42.4,28.3,30.33,SSE,166,4.0,4.0,57,0.00,,,0.00,VWS V13.01,2012-02-25 15:43:00,
2012-02-25 09:48:00,43.7,29.0,30.33,South,188,2.7,3.6,56,0.00,,,0.00,VWS V13.01,2012-02-25 15:48:00,
2012-02-25 09:53:00,44.6,29.0,30.33,South,180,4.0,5.4,54,0.00,,,0.00,VWS V13.01,2012-02-25 15:53:00,
2012-02-25 09:58:00,45.0,29.3,30.33,SSW,207,2.7,3.1,54,0.00,,,0.00,VWS V13.01,2012-02-25 15:58:00,
2012-02-25 10:03:00,45.7,29.5,30.33,SSE,150,2.7,3.1,53,0.00,,,0.00,VWS V13.01,2012-02-25 16:03:00,
2012-02-25 10:08:00,46.2,30.0,30.33,SSE,165,4.9,6.3,53,0.00,,,0.00,VWS V13.01,2012-02-25 16:08:00,
2012-02-25 10:13:00,46.6,29.9,30.33,ESE,116,4.0,4.0,52,0.00,,,0.00,VWS V13.01,2012-02-25 16:13:00,
2012-02-25 10:18:00,47.3,30.1,30.33,East,86,5.8,6.3,51,0.00,,,0.00,VWS V13.01,2012-02-25 16:18:00,
2012-02-25 10:23:00,47.7,30.4,30.33,SE,132,3.1,5.8,51,0.00,,,0.00,VWS V13.01,2012-02-25 16:23:00,
2012-02-25 10:28:00,47.3,29.6,30.33,SSE,160,5.4,5.4,50,0.00,,,0.00,VWS V13.01,2012-02-25 16:28:00,
2012-02-25 10:33:00,47.3,30.1,30.33,ESE,122,5.4,5.4,51,0.00,,,0.00,VWS V13.01,2012-02-25 16:33:00,
2012-02-25 10:38:00,47.8,29.6,30.33,SSE,162,2.7,3.1,49,0.00,,,0.00,VWS V13.01,2012-02-25 16:38:00,
2012-02-25 10:43:00,48.7,29.4,30.33,ESE,121,5.8,5.8,47,0.00,,,0.00,VWS V13.01,2012-02-25 16:43:00,
2012-02-25 10:48:00,48.7,29.4,30.33,ESE,119,8.1,8.1,47,0.00,,,0.00,VWS V13.01,2012-02-25 16:48:00,
2012-02-25 10:53:00,48.4,28.6,30.33,ENE,77,3.1,4.9,46,0.00,,,0.00,VWS V13.01,2012-02-25 16:53:00,
2012-02-25 10:58:00,48.7,28.9,30.33,SSW,213,6.3,6.3,46,0.00,,,0.00,VWS V13.01,2012-02-25 16:58:00,
2012-02-25 11:03:00,48.7,28.9,30.33,SSW,204,5.4,5.4,46,0.00,,,0.00,VWS V13.01,2012-02-25 17:03:00,
2012-02-25 11:08:00,48.7,28.9,30.33,South,180,6.3,6.3,46,0.00,,,0.00,VWS V13.01,2012-02-25 17:08:00,
2012-02-25 11:13:00,49.3,29.4,30.33,SW,229,4.0,5.4,46,0.00,,,0.00,VWS V13.01,2012-02-25 17:13:00,
2012-02-25 11:18:00,49.6,29.2,30.33,SSE,162,0.0,4.0,45,0.00,,,0.00,VWS V13.01,2012-02-25 17:18:00,
2012-02-25 11:23:00,49.6,29.2,30.33,SW,236,2.7,5.4,45,0.00,,,0.00,VWS V13.01,2012-02-25 17:23:00,
2012-02-25 11:28:00,50.0,29.0,30.33,SSW,199,2.7,4.0,44,0.00,,,0.00,VWS V13.01,2012-02-25 17:28:00,
2012-02-25 11:33:00,50.7,29.6,30.33,West,263,0.0,0.0,44,0.00,,,0.00,VWS V13.01,2012-02-25 17:33:00,
2012-02-25 11:38:00,51.6,30.4,30.33,East,101,2.2,2.7,44,0.00,,,0.00,VWS V13.01,2012-02-25 17:38:00,
2012-02-25 11:43:00,52.0,30.2,30.33,WSW,240,4.0,4.9,43,0.00,,,0.00,VWS V13.01,2012-02-25 17:43:00,
2012-02-25 11:48:00,51.8,30.0,30.33,SW,236,4.0,4.0,43,0.00,,,0.00,VWS V13.01,2012-02-25 17:48:00,
2012-02-25 11:53:00,52.2,29.8,30.33,SSE,163,4.0,7.6,42,0.00,,,0.00,VWS V13.01,2012-02-25 17:53:00,
2012-02-25 11:58:00,52.3,30.0,30.33,SW,236,3.1,4.5,42,0.00,,,0.00,VWS V13.01,2012-02-25 17:58:00,
2012-02-25 12:03:00,52.5,30.1,30.33,NNE,23,4.0,4.0,42,0.00,,,0.00,VWS V13.01,2012-02-25 18:03:00,
2012-02-25 12:08:00,52.5,30.1,30.33,NE,38,2.7,4.0,42,0.00,,,0.00,VWS V13.01,2012-02-25 18:08:00,
2012-02-25 12:13:00,53.1,30.6,30.33,SSW,200,5.8,8.3,42,0.00,,,0.00,VWS V13.01,2012-02-25 18:13:00,
2012-02-25 12:18:00,53.1,30.6,30.33,SSE,161,8.1,10.5,42,0.00,,,0.00,VWS V13.01,2012-02-25 18:18:00,
2012-02-25 12:23:00,52.9,30.4,30.33,SSE,156,5.4,7.6,42,0.00,,,0.00,VWS V13.01,2012-02-25 18:23:00,
2012-02-25 12:28:00,53.6,30.5,30.33,SW,227,5.4,6.7,41,0.00,,,0.00,VWS V13.01,2012-02-25 18:28:00,
2012-02-25 12:33:00,53.6,30.5,30.30,SW,215,4.9,6.3,41,0.00,,,0.00,VWS V13.01,2012-02-25 18:33:00,
2012-02-25 12:38:00,53.6,30.5,30.30,WSW,254,2.2,3.6,41,0.00,,,0.00,VWS V13.01,2012-02-25 18:38:00,
2012-02-25 12:43:00,53.8,30.6,30.30,SW,232,4.0,5.4,41,0.00,,,0.00,VWS V13.01,2012-02-25 18:43:00,
2012-02-25 12:48:00,54.0,30.8,30.30,SSE,158,4.0,5.8,41,0.00,,,0.00,VWS V13.01,2012-02-25 18:48:00,
2012-02-25 12:53:00,54.7,31.5,30.30,SE,143,0.0,2.7,41,0.00,,,0.00,VWS V13.01,2012-02-25 18:53:00,
2012-02-25 12:58:00,55.4,32.1,30.30,SSW,203,5.8,8.1,41,0.00,,,0.00,VWS V13.01,2012-02-25 18:58:00,
2012-02-25 13:03:00,55.4,31.5,30.30,South,174,5.4,6.3,40,0.00,,,0.00,VWS V13.01,2012-02-25 19:03:00,
2012-02-25 13:08:00,55.0,31.8,30.30,SSW,202,4.9,4.9,41,0.00,,,0.00,VWS V13.01,2012-02-25 19:08:00,
2012-02-25 13:13:00,55.6,31.7,30.30,SSW,194,4.0,5.4,40,0.00,,,0.00,VWS V13.01,2012-02-25 19:13:00,
2012-02-25 13:18:00,55.2,31.3,30.27,SW,228,10.5,10.5,40,0.00,,,0.00,VWS V13.01,2012-02-25 19:18:00,
2012-02-25 13:23:00,55.4,31.5,30.27,SW,232,5.4,5.4,40,0.00,,,0.00,VWS V13.01,2012-02-25 19:23:00,
2012-02-25 13:28:00,56.1,30.2,30.27,WSW,244,10.1,10.1,37,0.00,,,0.00,VWS V13.01,2012-02-25 19:28:00,
2012-02-25 13:33:00,56.1,32.2,30.27,WSW,251,6.3,7.6,40,0.00,,,0.00,VWS V13.01,2012-02-25 19:33:00,
2012-02-25 13:38:00,55.9,30.1,30.27,West,259,7.6,8.7,37,0.00,,,0.00,VWS V13.01,2012-02-25 19:38:00,
2012-02-25 13:43:00,56.1,30.2,30.27,West,279,7.6,7.6,37,0.00,,,0.00,VWS V13.01,2012-02-25 19:43:00,
2012-02-25 13:48:00,56.1,30.2,30.27,West,263,4.9,6.3,37,0.00,,,0.00,VWS V13.01,2012-02-25 19:48:00,
2012-02-25 13:53:00,56.3,29.0,30.27,WSW,241,10.1,10.5,35,0.00,,,0.00,VWS V13.01,2012-02-25 19:53:00,
2012-02-25 13:58:00,56.5,30.5,30.27,SW,222,8.3,8.3,37,0.00,,,0.00,VWS V13.01,2012-02-25 19:58:00,
2012-02-25 14:03:00,56.7,30.7,30.27,WSW,247,10.1,10.5,37,0.00,,,0.00,VWS V13.01,2012-02-25 20:03:00,
2012-02-25 14:08:00,56.8,30.9,30.27,SSE,160,6.3,6.3,37,0.00,,,0.00,VWS V13.01,2012-02-25 20:08:00,
2012-02-25 14:13:00,57.0,31.0,30.27,SW,224,11.0,11.0,37,0.00,,,0.00,VWS V13.01,2012-02-25 20:13:00,
2012-02-25 14:18:00,57.2,31.2,30.27,West,272,4.0,5.8,37,0.00,,,0.00,VWS V13.01,2012-02-25 20:18:00,
2012-02-25 14:23:00,57.2,31.2,30.27,SW,224,6.3,8.3,37,0.00,,,0.00,VWS V13.01,2012-02-25 20:23:00,
2012-02-25 14:28:00,57.2,31.2,30.27,SSW,204,3.6,5.4,37,0.00,,,0.00,VWS V13.01,2012-02-25 20:28:00,
2012-02-25 14:33:00,57.2,29.1,30.24,SW,234,5.4,5.4,34,0.00,,,0.00,VWS V13.01,2012-02-25 20:33:00,
2012-02-25 14:38:00,57.4,29.3,30.24,SSE,156,5.4,5.4,34,0.00,,,0.00,VWS V13.01,2012-02-25 20:38:00,
2012-02-25 14:43:00,57.2,29.1,30.24,West,263,3.1,3.6,34,0.00,,,0.00,VWS V13.01,2012-02-25 20:43:00,
2012-02-25 14:48:00,57.7,29.6,30.24,South,174,11.0,11.0,34,0.00,,,0.00,VWS V13.01,2012-02-25 20:48:00,
2012-02-25 14:53:00,57.7,31.7,30.24,SW,234,6.3,8.1,37,0.00,,,0.00,VWS V13.01,2012-02-25 20:53:00,
2012-02-25 14:58:00,57.9,29.7,30.24,WSW,242,8.7,8.7,34,0.00,,,0.00,VWS V13.01,2012-02-25 20:58:00,
2012-02-25 15:03:00,57.7,29.6,30.24,SW,232,7.6,10.5,34,0.00,,,0.00,VWS V13.01,2012-02-25 21:03:00,
2012-02-25 15:08:00,57.9,29.7,30.24,SW,215,5.8,8.3,34,0.00,,,0.00,VWS V13.01,2012-02-25 21:08:00,
2012-02-25 15:13:00,58.1,29.9,30.24,SSW,209,5.8,5.8,34,0.00,,,0.00,VWS V13.01,2012-02-25 21:13:00,
2012-02-25 15:18:00,57.9,29.7,30.24,WSW,238,6.3,6.3,34,0.00,,,0.00,VWS V13.01,2012-02-25 21:18:00,
2012-02-25 15:23:00,58.1,29.9,30.24,WSW,257,4.0,4.9,34,0.00,,,0.00,VWS V13.01,2012-02-25 21:23:00,
2012-02-25 15:28:00,58.3,30.1,30.24,WSW,238,0.0,0.0,34,0.00,,,0.00,VWS V13.01,2012-02-25 21:28:00,
2012-02-25 15:33:00,58.6,30.4,30.21,SSW,197,5.4,5.4,34,0.00,,,0.00,VWS V13.01,2012-02-25 21:33:00,
2012-02-25 15:38:00,58.6,30.4,30.21,SSW,205,5.4,5.4,34,0.00,,,0.00,VWS V13.01,2012-02-25 21:38:00,
2012-02-25 15:43:00,58.6,30.4,30.21,WSW,239,6.3,8.3,34,0.00,,,0.00,VWS V13.01,2012-02-25 21:43:00,
2012-02-25 15:48:00,58.5,30.2,30.21,South,178,3.6,3.6,34,0.00,,,0.00,VWS V13.01,2012-02-25 21:48:00,
2012-02-25 15:53:00,58.3,30.1,30.21,South,187,5.4,5.4,34,0.00,,,0.00,VWS V13.01,2012-02-25 21:53:00,
2012-02-25 15:58:00,58.5,30.2,30.21,SSE,162,3.1,3.1,34,0.00,,,0.00,VWS V13.01,2012-02-25 21:58:00,
2012-02-25 16:03:00,58.5,30.2,30.21,ENE,64,2.7,3.6,34,0.00,,,0.00,VWS V13.01,2012-02-25 22:03:00,
2012-02-25 16:08:00,58.5,30.2,30.21,ESE,121,4.5,4.5,34,0.00,,,0.00,VWS V13.01,2012-02-25 22:08:00,
2012-02-25 16:13:00,58.5,30.2,30.21,SSE,147,2.7,3.1,34,0.00,,,0.00,VWS V13.01,2012-02-25 22:13:00,
2012-02-25 16:18:00,58.5,30.2,30.21,South,179,3.6,3.6,34,0.00,,,0.00,VWS V13.01,2012-02-25 22:18:00,
2012-02-25 16:23:00,58.5,30.2,30.21,SSE,163,5.8,6.3,34,0.00,,,0.00,VWS V13.01,2012-02-25 22:23:00,
2012-02-25 16:28:00,58.5,30.2,30.21,WSW,237,4.0,4.0,34,0.00,,,0.00,VWS V13.01,2012-02-25 22:28:00,
2012-02-25 16:33:00,58.6,30.4,30.21,West,263,3.6,3.6,34,0.00,,,0.00,VWS V13.01,2012-02-25 22:33:00,
2012-02-25 16:38:00,59.0,30.7,30.21,WNW,300,2.7,3.1,34,0.00,,,0.00,VWS V13.01,2012-02-25 22:38:00,
2012-02-25 16:43:00,58.8,30.5,30.21,WSW,245,2.2,2.7,34,0.00,,,0.00,VWS V13.01,2012-02-25 22:43:00,
2012-02-25 16:48:00,58.8,30.5,30.21,SW,229,3.1,3.1,34,0.00,,,0.00,VWS V13.01,2012-02-25 22:48:00,
2012-02-25 16:53:00,59.0,30.7,30.21,SW,233,2.7,3.1,34,0.00,,,0.00,VWS V13.01,2012-02-25 22:53:00,
2012-02-25 16:58:00,59.2,29.4,30.21,West,274,0.0,0.0,32,0.00,,,0.00,VWS V13.01,2012-02-25 22:58:00,
2012-02-25 17:03:00,59.2,29.4,30.21,SW,224,0.0,0.0,32,0.00,,,0.00,VWS V13.01,2012-02-25 23:03:00,
2012-02-25 17:08:00,59.4,29.5,30.21,WSW,256,0.0,0.0,32,0.00,,,0.00,VWS V13.01,2012-02-25 23:08:00,
2012-02-25 17:13:00,59.4,31.0,30.21,NW,311,2.7,2.7,34,0.00,,,0.00,VWS V13.01,2012-02-25 23:13:00,
2012-02-25 17:18:00,58.8,29.0,30.18,North,351,0.0,0.0,32,0.00,,,0.00,VWS V13.01,2012-02-25 23:18:00,
2012-02-25 17:23:00,58.6,28.9,30.18,NNE,23,0.0,0.0,32,0.00,,,0.00,VWS V13.01,2012-02-25 23:23:00,
2012-02-25 17:28:00,58.5,30.2,30.18,ENE,74,0.0,0.0,34,0.00,,,0.00,VWS V13.01,2012-02-25 23:28:00,
2012-02-25 17:33:00,57.9,29.7,30.18,NE,47,0.0,0.0,34,0.00,,,0.00,VWS V13.01,2012-02-25 23:33:00,
2012-02-25 17:38:00,57.6,29.4,30.18,NE,47,0.0,0.0,34,0.00,,,0.00,VWS V13.01,2012-02-25 23:38:00,
2012-02-25 17:43:00,57.6,29.4,30.18,NE,47,0.0,0.0,34,0.00,,,0.00,VWS V13.01,2012-02-25 23:43:00,
2012-02-25 17:48:00,57.6,28.0,30.18,NE,47,0.0,0.0,32,0.00,,,0.00,VWS V13.01,2012-02-25 23:48:00,
2012-02-25 17:53:00,57.0,29.7,30.18,East,80,0.0,0.0,35,0.00,,,0.00,VWS V13.01,2012-02-25 23:53:00,
2012-02-25 17:58:00,56.3,29.0,30.18,ENE,77,0.0,0.0,35,0.00,,,0.00,VWS V13.01,2012-02-25 23:58:00,
2012-02-25 18:03:00,55.8,26.4,30.18,East,101,2.2,2.2,32,0.00,,,0.00,VWS V13.01,2012-02-26 00:03:00,
2012-02-25 18:08:00,55.2,26.6,30.18,East,97,2.2,2.7,33,0.00,,,0.00,VWS V13.01,2012-02-26 00:08:00,
2012-02-25 18:13:00,54.7,27.6,30.18,East,85,2.7,2.7,35,0.00,,,0.00,VWS V13.01,2012-02-26 00:13:00,
2012-02-25 18:18:00,54.3,27.3,30.18,ENE,76,2.2,2.2,35,0.00,,,0.00,VWS V13.01,2012-02-26 00:18:00,
2012-02-25 18:23:00,54.0,27.0,30.18,East,82,2.7,2.7,35,0.00,,,0.00,VWS V13.01,2012-02-26 00:23:00,
2012-02-25 18:28:00,53.6,26.6,30.18,East,82,3.1,3.6,35,0.00,,,0.00,VWS V13.01,2012-02-26 00:28:00,
2012-02-25 18:33:00,53.4,27.1,30.18,East,79,3.1,3.6,36,0.00,,,0.00,VWS V13.01,2012-02-26 00:33:00,
2012-02-25 18:38:00,53.2,27.0,30.18,ENE,67,3.1,3.1,36,0.00,,,0.00,VWS V13.01,2012-02-26 00:38:00,
2012-02-25 18:43:00,52.3,27.5,30.18,NE,41,2.2,2.2,38,0.00,,,0.00,VWS V13.01,2012-02-26 00:43:00,
2012-02-25 18:48:00,51.4,27.3,30.18,NE,51,2.2,2.7,39,0.00,,,0.00,VWS V13.01,2012-02-26 00:48:00,
2012-02-25 18:53:00,51.1,28.2,30.18,East,82,0.0,0.0,41,0.00,,,0.00,VWS V13.01,2012-02-26 00:53:00,
2012-02-25 18:58:00,50.5,27.7,30.18,NE,52,0.0,0.0,41,0.00,,,0.00,VWS V13.01,2012-02-26 00:58:00,
2012-02-25 19:03:00,49.5,27.9,30.18,NE,47,0.0,0.0,43,0.00,,,0.00,VWS V13.01,2012-02-26 01:03:00,
2012-02-25 19:08:00,48.2,27.3,30.18,NNE,31,0.0,0.0,44,0.00,,,0.00,VWS V13.01,2012-02-26 01:08:00,
2012-02-25 19:13:00,47.3,27.6,30.18,North,5,0.0,0.0,46,0.00,,,0.00,VWS V13.01,2012-02-26 01:13:00,
2012-02-25 19:18:00,46.6,28.0,30.18,North,5,0.0,0.0,48,0.00,,,0.00,VWS V13.01,2012-02-26 01:18:00,
2012-02-25 19:23:00,45.7,28.6,30.18,North,5,0.0,0.0,51,0.00,,,0.00,VWS V13.01,2012-02-26 01:23:00,
2012-02-25 19:28:00,45.0,29.3,30.18,North,5,0.0,0.0,54,0.00,,,0.00,VWS V13.01,2012-02-26 01:28:00,
2012-02-25 19:33:00,44.2,28.7,30.18,North,5,0.0,0.0,54,0.00,,,0.00,VWS V13.01,2012-02-26 01:33:00,
2012-02-25 19:38:00,43.7,29.0,30.18,NNE,16,0.0,0.0,56,0.00,,,0.00,VWS V13.01,2012-02-26 01:38:00,
2012-02-25 19:43:00,43.2,29.8,30.18,NNE,16,0.0,0.0,59,0.00,,,0.00,VWS V13.01,2012-02-26 01:43:00,
2012-02-25 19:48:00,42.4,30.0,30.18,NNE,16,0.0,0.0,61,0.00,,,0.00,VWS V13.01,2012-02-26 01:48:00,
2012-02-25 19:53:00,42.1,29.2,30.18,NNE,30,0.0,0.0,60,0.00,,,0.00,VWS V13.01,2012-02-26 01:53:00,
2012-02-25 19:58:00,41.7,29.7,30.18,NE,35,4.0,4.0,62,0.00,,,0.00,VWS V13.01,2012-02-26 01:58:00,
2012-02-25 20:03:00,41.4,29.7,30.18,NNE,33,2.7,3.1,63,0.00,,,0.00,VWS V13.01,2012-02-26 02:03:00,
2012-02-25 20:08:00,41.0,29.8,30.18,NNE,33,2.2,2.7,64,0.00,,,0.00,VWS V13.01,2012-02-26 02:08:00,
2012-02-25 20:13:00,40.8,30.4,30.18,NNE,33,0.0,0.0,66,0.00,,,0.00,VWS V13.01,2012-02-26 02:13:00,
2012-02-25 20:18:00,40.5,30.8,30.18,NNE,26,0.0,0.0,68,0.00,,,0.00,VWS V13.01,2012-02-26 02:18:00,
2012-02-25 20:23:00,40.3,30.6,30.18,NNE,26,2.2,2.7,68,0.00,,,0.00,VWS V13.01,2012-02-26 02:23:00,
2012-02-25 20:28:00,39.9,30.2,30.18,North,353,0.0,0.0,68,0.00,,,0.00,VWS V13.01,2012-02-26 02:28:00,
2012-02-25 20:33:00,39.4,29.7,30.18,NNE,18,2.7,2.7,68,0.00,,,0.00,VWS V13.01,2012-02-26 02:33:00,
2012-02-25 20:38:00,39.2,30.2,30.18,NNE,30,2.7,2.7,70,0.00,,,0.00,VWS V13.01,2012-02-26 02:38:00,
2012-02-25 20:43:00,39.0,30.1,30.18,NE,41,2.7,3.1,70,0.00,,,0.00,VWS V13.01,2012-02-26 02:43:00,
2012-02-25 20:48:00,39.0,30.1,30.15,NNE,29,2.7,3.1,70,0.00,,,0.00,VWS V13.01,2012-02-26 02:48:00,
2012-02-25 20:53:00,38.8,29.2,30.15,NNE,27,2.2,2.7,68,0.00,,,0.00,VWS V13.01,2012-02-26 02:53:00,
2012-02-25 20:58:00,39.0,28.3,30.15,NNE,22,2.7,2.7,65,0.00,,,0.00,VWS V13.01,2012-02-26 02:58:00,
2012-02-25 21:03:00,39.9,28.8,30.18,NNE,15,2.7,2.7,64,0.00,,,0.00,VWS V13.01,2012-02-26 03:03:00,
2012-02-25 21:08:00,40.5,28.5,30.18,NNE,16,2.7,2.7,62,0.00,,,0.00,VWS V13.01,2012-02-26 03:08:00,
2012-02-25 21:13:00,40.1,28.5,30.18,North,9,0.0,0.0,63,0.00,,,0.00,VWS V13.01,2012-02-26 03:13:00,
2012-02-25 21:18:00,39.6,28.0,30.18,NE,37,3.1,3.6,63,0.00,,,0.00,VWS V13.01,2012-02-26 03:18:00,
2012-02-25 21:23:00,39.6,28.4,30.18,NE,42,3.1,3.1,64,0.00,,,0.00,VWS V13.01,2012-02-26 03:23:00,
2012-02-25 21:28:00,40.1,27.4,30.18,NE,53,2.7,2.7,60,0.00,,,0.00,VWS V13.01,2012-02-26 03:28:00,
2012-02-25 21:33:00,40.6,29.4,30.18,NNE,23,0.0,0.0,64,0.00,,,0.00,VWS V13.01,2012-02-26 03:33:00,
2012-02-25 21:38:00,40.6,27.5,30.18,NE,38,3.6,3.6,59,0.00,,,0.00,VWS V13.01,2012-02-26 03:38:00,
2012-02-25 21:43:00,40.6,27.9,30.18,NE,41,3.6,4.0,60,0.00,,,0.00,VWS V13.01,2012-02-26 03:43:00,
2012-02-25 21:48:00,40.5,27.7,30.18,NE,34,3.1,4.0,60,0.00,,,0.00,VWS V13.01,2012-02-26 03:48:00,
2012-02-25 21:53:00,39.9,28.4,30.18,NNE,24,0.0,0.0,63,0.00,,,0.00,VWS V13.01,2012-02-26 03:53:00,
2012-02-25 21:58:00,39.4,28.2,30.18,NNE,17,2.7,3.1,64,0.00,,,0.00,VWS V13.01,2012-02-26 03:58:00,
2012-02-25 22:03:00,38.8,28.5,30.18,NNE,16,2.7,3.1,66,0.00,,,0.00,VWS V13.01,2012-02-26 04:03:00,
2012-02-25 22:08:00,38.5,28.5,30.18,NNE,26,3.1,3.1,67,0.00,,,0.00,VWS V13.01,2012-02-26 04:08:00,
2012-02-25 22:13:00,39.2,28.4,30.18,NNE,21,3.1,3.1,65,0.00,,,0.00,VWS V13.01,2012-02-26 04:13:00,
2012-02-25 22:18:00,39.7,27.8,30.15,NE,40,3.1,4.0,62,0.00,,,0.00,VWS V13.01,2012-02-26 04:18:00,
2012-02-25 22:23:00,40.3,26.3,30.15,ENE,61,4.0,4.9,57,0.00,,,0.00,VWS V13.01,2012-02-26 04:23:00,
2012-02-25 22:28:00,42.1,27.1,30.15,ENE,65,3.6,4.9,55,0.00,,,0.00,VWS V13.01,2012-02-26 04:28:00,
2012-02-25 22:33:00,43.5,28.0,30.15,ENE,57,2.2,4.0,54,0.00,,,0.00,VWS V13.01,2012-02-26 04:33:00,
2012-02-25 22:38:00,44.2,28.2,30.15,East,84,6.3,6.3,53,0.00,,,0.00,VWS V13.01,2012-02-26 04:38:00,
2012-02-25 22:43:00,44.8,28.7,30.15,ENE,58,2.7,3.1,53,0.00,,,0.00,VWS V13.01,2012-02-26 04:43:00,
2012-02-25 22:48:00,44.6,28.5,30.15,NE,54,3.1,4.0,53,0.00,,,0.00,VWS V13.01,2012-02-26 04:48:00,
2012-02-25 22:53:00,44.4,28.4,30.15,NE,34,2.7,3.1,53,0.00,,,0.00,VWS V13.01,2012-02-26 04:53:00,
2012-02-25 22:58:00,43.7,28.2,30.15,NNE,33,3.1,3.1,54,0.00,,,0.00,VWS V13.01,2012-02-26 04:58:00,
2012-02-25 23:00:00,43.5,28.0,30.15,NNE,19,2.7,2.7,54,0.00,,,0.00,VWS V13.01,2012-02-26 05:00:00,
2012-02-25 23:05:00,43.3,27.8,30.15,NE,50,4.0,4.0,54,0.00,,,0.00,VWS V13.01,2012-02-26 05:05:00,
2012-02-25 23:10:00,43.9,27.9,30.15,NNE,30,3.6,5.8,53,0.00,,,0.00,VWS V13.01,2012-02-26 05:10:00,
2012-02-25 23:15:00,44.2,28.2,30.15,NE,35,3.1,3.1,53,0.00,,,0.00,VWS V13.01,2012-02-26 05:15:00,
2012-02-25 23:20:00,44.6,28.5,30.15,ENE,77,4.0,5.4,53,0.00,,,0.00,VWS V13.01,2012-02-26 05:20:00,
2012-02-25 23:25:00,45.0,28.9,30.15,East,88,4.9,5.4,53,0.00,,,0.00,VWS V13.01,2012-02-26 05:25:00,
2012-02-25 23:30:00,45.5,29.4,30.15,ENE,60,3.1,3.6,53,0.00,,,0.00,VWS V13.01,2012-02-26 05:30:00,
2012-02-25 23:35:00,45.9,29.2,30.15,ENE,71,3.1,4.0,52,0.00,,,0.00,VWS V13.01,2012-02-26 05:35:00,
2012-02-25 23:40:00,45.9,29.2,30.15,NE,53,3.6,4.0,52,0.00,,,0.00,VWS V13.01,2012-02-26 05:40:00,
2012-02-25 23:46:00,45.5,29.4,30.15,NE,50,2.7,2.7,53,0.00,,,0.00,VWS V13.01,2012-02-26 05:46:00,
2012-02-25 23:51:00,44.4,28.8,30.15,NE,37,2.7,3.6,54,0.00,,,0.00,VWS V13.01,2012-02-26 05:51:00,
2012-02-25 23:56:00,43.5,28.0,30.15,NE,49,3.1,3.6,54,0.00,,,0.00,VWS V13.01,2012-02-26 05:56:00,